Location: Petruro
(41.0333°N, 14.7833°E)
Time: 07:55:49
(UTC+00:00)

CZ-2D R/B - Pass Details

Date: 20 June 2021
Orbit: 791 x 845 km, 98.7° (Epoch: 01 August)

Event Time Altitude Azimuth Distance (km) Brightness Sun altitude
Rises 01:33:37 0° 2° (N) 3,301 6.3 -16.6°
Reaches altitude 10° 01:36:12 10° 352° (N) 2,366 5.2 -16.3°
Maximum altitude 01:40:38 29° 294° (WNW) 1,413 3.2 -15.8°
Enters shadow 01:43:15 19° 250° (WSW) 1,801 3.4 -15.5°
